contact:dominique.lefevre@mio.osupytheas.fr, maurice.libes@osupytheas.fr, didier.mallarino@osupytheas.fr
Project:EMSO http://www.emso-fr.org/EMSO-France
Depth: 2436.0 m
Title:EMSO Ligure Ouest : Data MII capteur CSTAR
DateTime,Latitude,Longitude,Instrument_Serial,Reference_Counts,Signal_Counts,Corrected_Signal_raw_counts,Calculated_Beam_c_inverse_meters,Internal_thermistor_counts
DateTime,Latitude,Longitude,Instrument_Serial,Reference_Counts,Signal_Counts,Corrected_Signal_raw_counts,Calculated_Beam_c_inverse_meters,Internal_thermistor_counts
2021-10-13T00:02:26,42.805,6.029,CST-1368DR,5155,6922,14373,0.332,551
2021-10-13T00:05:27,42.805,6.029,CST-1368DR,5155,6921,14371,0.332,551
2021-10-13T00:08:29,42.805,6.029,CST-1368DR,5155,6921,14371,0.332,551
2021-10-13T00:11:30,42.805,6.029,CST-1368DR,5155,6923,14373,0.332,551
2021-10-13T00:14:32,42.805,6.029,CST-1368DR,5155,6921,14371,0.332,551
2021-10-13T00:17:34,42.805,6.029,CST-1368DR,5155,6921,14370,0.333,551
2021-10-13T00:20:35,42.805,6.029,CST-1368DR,5155,6921,14370,0.333,551
2021-10-13T00:23:37,42.805,6.029,CST-1368DR,5155,6920,14369,0.333,551
2021-10-13T00:26:38,42.805,6.029,CST-1368DR,5155,6921,14370,0.333,551
2021-10-13T00:29:40,42.805,6.029,CST-1368DR,5155,6922,14372,0.332,551
2021-10-13T00:32:41,42.805,6.029,CST-1368DR,5155,6922,14373,0.332,551
2021-10-13T00:35:43,42.805,6.029,CST-1368DR,5155,6921,14370,0.333,551
2021-10-13T00:38:45,42.805,6.029,CST-1368DR,5155,6921,14370,0.333,551
2021-10-13T00:41:46,42.805,6.029,CST-1368DR,5155,6921,14371,0.332,550
2021-10-13T00:44:48,42.805,6.029,CST-1368DR,5155,6921,14370,0.333,551
2021-10-13T00:47:49,42.805,6.029,CST-1368DR,5155,6922,14372,0.332,551
2021-10-13T00:50:51,42.805,6.029,CST-1368DR,5155,6921,14370,0.333,551
2021-10-13T00:53:53,42.805,6.029,CST-1368DR,5155,6921,14370,0.333,551
2021-10-13T00:56:54,42.805,6.029,CST-1368DR,5154,6920,14370,0.333,551
2021-10-13T00:59:56,42.805,6.029,CST-1368DR,5155,6921,14369,0.333,551
2021-10-13T01:02:57,42.805,6.029,CST-1368DR,5155,6921,14370,0.333,551
2021-10-13T01:05:59,42.805,6.029,CST-1368DR,5155,6921,14371,0.332,551
2021-10-13T01:09:00,42.805,6.029,CST-1368DR,5155,6921,14370,0.333,551
2021-10-13T01:12:02,42.805,6.029,CST-1368DR,5155,6921,14370,0.333,551
2021-10-13T01:15:04,42.805,6.029,CST-1368DR,5154,6920,14371,0.332,551
2021-10-13T01:18:05,42.805,6.029,CST-1368DR,5155,6921,14369,0.333,551
2021-10-13T01:21:07,42.805,6.029,CST-1368DR,5155,6921,14370,0.333,551
2021-10-13T01:24:08,42.805,6.029,CST-1368DR,5155,6920,14369,0.333,551
2021-10-13T01:27:10,42.805,6.029,CST-1368DR,5155,6921,14369,0.333,551
2021-10-13T01:30:11,42.805,6.029,CST-1368DR,5155,6920,14368,0.333,551
2021-10-13T01:33:13,42.805,6.029,CST-1368DR,5155,6921,14370,0.333,551
2021-10-13T01:36:15,42.805,6.029,CST-1368DR,5155,6918,14363,0.335,551
2021-10-13T01:39:16,42.805,6.029,CST-1368DR,5155,6921,14370,0.333,551
2021-10-13T01:42:18,42.805,6.029,CST-1368DR,5155,6920,14369,0.333,551
2021-10-13T01:45:19,42.805,6.029,CST-1368DR,5155,6921,14369,0.333,551
2021-10-13T01:48:21,42.805,6.029,CST-1368DR,5155,6920,14369,0.333,551
2021-10-13T01:51:23,42.805,6.029,CST-1368DR,5155,6920,14368,0.333,551
2021-10-13T01:54:24,42.805,6.029,CST-1368DR,5154,6921,14372,0.332,551
2021-10-13T01:57:26,42.805,6.029,CST-1368DR,5155,6921,14370,0.333,551
2021-10-13T02:00:27,42.805,6.029,CST-1368DR,5155,6920,14369,0.333,551
2021-10-13T02:03:29,42.805,6.029,CST-1368DR,5154,6919,14368,0.333,551
2021-10-13T02:06:30,42.805,6.029,CST-1368DR,5155,6920,14368,0.333,551
2021-10-13T02:09:32,42.805,6.029,CST-1368DR,5155,6919,14366,0.334,551
2021-10-13T02:12:34,42.805,6.029,CST-1368DR,5154,6920,14370,0.333,551
2021-10-13T02:15:35,42.805,6.029,CST-1368DR,5155,6920,14368,0.333,551
2021-10-13T02:18:37,42.805,6.029,CST-1368DR,5155,6920,14368,0.333,551
2021-10-13T02:21:38,42.805,6.029,CST-1368DR,5155,6920,14368,0.333,551
2021-10-13T02:24:40,42.805,6.029,CST-1368DR,5155,6921,14369,0.333,551
2021-10-13T02:27:42,42.805,6.029,CST-1368DR,5154,6920,14371,0.332,551
2021-10-13T02:30:43,42.805,6.029,CST-1368DR,5155,6920,14368,0.333,551
2021-10-13T02:33:45,42.805,6.029,CST-1368DR,5154,6920,14371,0.332,551
2021-10-13T02:36:46,42.805,6.029,CST-1368DR,5154,6920,14371,0.332,551
2021-10-13T02:39:48,42.805,6.029,CST-1368DR,5154,6920,14371,0.332,551
2021-10-13T02:42:49,42.805,6.029,CST-1368DR,5154,6921,14372,0.332,551
2021-10-13T02:45:51,42.805,6.029,CST-1368DR,5155,6920,14368,0.333,551
2021-10-13T02:48:53,42.805,6.029,CST-1368DR,5154,6920,14371,0.332,550
2021-10-13T02:51:54,42.805,6.029,CST-1368DR,5155,6920,14369,0.333,551
2021-10-13T02:54:56,42.805,6.029,CST-1368DR,5154,6921,14372,0.332,551
2021-10-13T02:57:57,42.805,6.029,CST-1368DR,5154,6918,14367,0.333,551
2021-10-13T03:00:59,42.805,6.029,CST-1368DR,5154,6920,14370,0.333,551
2021-10-13T03:04:00,42.805,6.029,CST-1368DR,5154,6921,14372,0.332,551
2021-10-13T03:07:02,42.805,6.029,CST-1368DR,5154,6920,14371,0.332,551
2021-10-13T03:10:04,42.805,6.029,CST-1368DR,5154,6921,14372,0.332,551
2021-10-13T03:13:05,42.805,6.029,CST-1368DR,5154,6920,14371,0.332,551
2021-10-13T03:16:07,42.805,6.029,CST-1368DR,5154,6920,14371,0.332,551
2021-10-13T03:19:08,42.805,6.029,CST-1368DR,5154,6921,14372,0.332,551
2021-10-13T03:22:10,42.805,6.029,CST-1368DR,5154,6921,14372,0.332,551
2021-10-13T03:25:12,42.805,6.029,CST-1368DR,5154,6920,14371,0.332,551
2021-10-13T03:28:13,42.805,6.029,CST-1368DR,5154,6920,14371,0.332,551
2021-10-13T03:31:15,42.805,6.029,CST-1368DR,5154,6916,14362,0.335,551
2021-10-13T03:34:16,42.805,6.029,CST-1368DR,5154,6906,14341,0.341,551
2021-10-13T03:37:18,42.805,6.029,CST-1368DR,5154,6903,14336,0.342,551
2021-10-13T03:40:19,42.805,6.029,CST-1368DR,5154,6903,14334,0.343,551
2021-10-13T03:43:21,42.805,6.029,CST-1368DR,5154,6911,14351,0.338,551
2021-10-13T03:46:23,42.805,6.029,CST-1368DR,5154,6910,14350,0.338,551
2021-10-13T03:49:24,42.805,6.029,CST-1368DR,5154,6917,14364,0.334,551
2021-10-13T03:52:26,42.805,6.029,CST-1368DR,5154,6916,14363,0.335,551
2021-10-13T03:55:27,42.805,6.029,CST-1368DR,5154,6919,14368,0.333,551
2021-10-13T03:58:29,42.805,6.029,CST-1368DR,5154,6920,14370,0.333,551
2021-10-13T04:01:31,42.805,6.029,CST-1368DR,5154,6920,14371,0.332,551
2021-10-13T04:04:32,42.805,6.029,CST-1368DR,5154,6920,14371,0.332,551
2021-10-13T04:07:34,42.805,6.029,CST-1368DR,5154,6920,14370,0.333,551
2021-10-13T04:10:35,42.805,6.029,CST-1368DR,5154,6920,14370,0.333,551
2021-10-13T04:13:37,42.805,6.029,CST-1368DR,5154,6920,14370,0.333,551
2021-10-13T04:16:38,42.805,6.029,CST-1368DR,5154,6920,14371,0.332,551
2021-10-13T04:19:40,42.805,6.029,CST-1368DR,5154,6920,14370,0.333,551
2021-10-13T04:22:42,42.805,6.029,CST-1368DR,5154,6919,14369,0.333,551
2021-10-13T04:25:43,42.805,6.029,CST-1368DR,5154,6920,14371,0.332,551
2021-10-13T04:28:45,42.805,6.029,CST-1368DR,5154,6920,14371,0.332,551
2021-10-13T04:31:46,42.805,6.029,CST-1368DR,5154,6920,14371,0.332,551
2021-10-13T04:34:48,42.805,6.029,CST-1368DR,5154,6919,14369,0.333,551
2021-10-13T04:37:49,42.805,6.029,CST-1368DR,5154,6919,14368,0.333,551
2021-10-13T04:40:51,42.805,6.029,CST-1368DR,5154,6920,14371,0.332,551
2021-10-13T04:43:53,42.805,6.029,CST-1368DR,5154,6920,14370,0.333,551
2021-10-13T04:46:54,42.805,6.029,CST-1368DR,5154,6920,14370,0.333,551
2021-10-13T04:49:56,42.805,6.029,CST-1368DR,5154,6920,14370,0.333,551
2021-10-13T04:52:57,42.805,6.029,CST-1368DR,5154,6920,14371,0.332,551
2021-10-13T04:55:59,42.805,6.029,CST-1368DR,5154,6919,14368,0.333,551
2021-10-13T04:59:01,42.805,6.029,CST-1368DR,5154,6919,14368,0.333,551
2021-10-13T05:02:02,42.805,6.029,CST-1368DR,5154,6920,14370,0.333,551
2021-10-13T05:05:04,42.805,6.029,CST-1368DR,5154,6918,14366,0.334,551
2021-10-13T05:08:05,42.805,6.029,CST-1368DR,5154,6920,14370,0.333,551
2021-10-13T05:11:07,42.805,6.029,CST-1368DR,5154,6919,14368,0.333,551
2021-10-13T05:14:08,42.805,6.029,CST-1368DR,5154,6921,14372,0.332,551
2021-10-13T05:17:10,42.805,6.029,CST-1368DR,5154,6920,14370,0.333,551
2021-10-13T05:20:12,42.805,6.029,CST-1368DR,5154,6919,14369,0.333,551
2021-10-13T05:23:13,42.805,6.029,CST-1368DR,5154,6920,14370,0.333,551
2021-10-13T05:26:15,42.805,6.029,CST-1368DR,5154,6919,14368,0.333,551
2021-10-13T05:29:16,42.805,6.029,CST-1368DR,5154,6918,14366,0.334,551
2021-10-13T05:32:18,42.805,6.029,CST-1368DR,5154,6921,14373,0.332,551
2021-10-13T05:35:19,42.805,6.029,CST-1368DR,5154,6921,14372,0.332,551
2021-10-13T05:38:21,42.805,6.029,CST-1368DR,5154,6920,14371,0.332,551
2021-10-13T05:41:23,42.805,6.029,CST-1368DR,5154,6920,14370,0.333,551
2021-10-13T05:44:24,42.805,6.029,CST-1368DR,5154,6919,14369,0.333,551
2021-10-13T05:47:26,42.805,6.029,CST-1368DR,5154,6919,14369,0.333,551
2021-10-13T05:50:27,42.805,6.029,CST-1368DR,5154,6918,14366,0.334,551
2021-10-13T05:53:29,42.805,6.029,CST-1368DR,5154,6920,14371,0.332,551
2021-10-13T05:56:31,42.805,6.029,CST-1368DR,5154,6920,14371,0.332,550
2021-10-13T05:59:32,42.805,6.029,CST-1368DR,5154,6918,14366,0.334,551
2021-10-13T06:02:34,42.805,6.029,CST-1368DR,5154,6920,14371,0.332,551
2021-10-13T06:05:35,42.805,6.029,CST-1368DR,5154,6920,14370,0.333,551
2021-10-13T06:08:37,42.805,6.029,CST-1368DR,5154,6920,14370,0.333,551
2021-10-13T06:11:38,42.805,6.029,CST-1368DR,5154,6919,14369,0.333,551
2021-10-13T06:14:40,42.805,6.029,CST-1368DR,5154,6919,14369,0.333,551
2021-10-13T06:17:42,42.805,6.029,CST-1368DR,5154,6919,14369,0.333,551
2021-10-13T06:20:43,42.805,6.029,CST-1368DR,5154,6920,14370,0.333,551
2021-10-13T06:23:45,42.805,6.029,CST-1368DR,5154,6917,14364,0.334,551
2021-10-13T06:26:46,42.805,6.029,CST-1368DR,5154,6919,14369,0.333,551
2021-10-13T06:29:48,42.805,6.029,CST-1368DR,5154,6919,14368,0.333,551
2021-10-13T06:32:50,42.805,6.029,CST-1368DR,5154,6919,14368,0.333,551
2021-10-13T06:35:51,42.805,6.029,CST-1368DR,5154,6919,14369,0.333,551
2021-10-13T06:38:53,42.805,6.029,CST-1368DR,5154,6920,14370,0.333,551
2021-10-13T06:41:54,42.805,6.029,CST-1368DR,5154,6918,14366,0.334,551
2021-10-13T06:44:56,42.805,6.029,CST-1368DR,5154,6916,14362,0.335,551
2021-10-13T06:47:57,42.805,6.029,CST-1368DR,5154,6909,14347,0.339,551
2021-10-13T06:50:59,42.805,6.029,CST-1368DR,5154,6910,14350,0.338,551
2021-10-13T06:54:01,42.805,6.029,CST-1368DR,5154,6915,14360,0.335,551
2021-10-13T06:57:02,42.805,6.029,CST-1368DR,5154,6918,14366,0.334,551
2021-10-13T07:00:04,42.805,6.029,CST-1368DR,5154,6920,14370,0.333,551
2021-10-13T07:03:05,42.805,6.029,CST-1368DR,5154,6920,14370,0.333,551
2021-10-13T07:06:07,42.805,6.029,CST-1368DR,5154,6920,14370,0.333,551
2021-10-13T07:09:08,42.805,6.029,CST-1368DR,5154,6919,14369,0.333,551
2021-10-13T07:12:10,42.805,6.029,CST-1368DR,5154,6920,14370,0.333,551
2021-10-13T07:15:12,42.805,6.029,CST-1368DR,5154,6919,14369,0.333,551
2021-10-13T07:18:13,42.805,6.029,CST-1368DR,5154,6917,14365,0.334,551
2021-10-13T07:21:15,42.805,6.029,CST-1368DR,5154,6919,14369,0.333,551
2021-10-13T07:24:16,42.805,6.029,CST-1368DR,5154,6919,14369,0.333,551
2021-10-13T07:27:18,42.805,6.029,CST-1368DR,5154,6920,14370,0.333,551
2021-10-13T07:30:20,42.805,6.029,CST-1368DR,5154,6920,14371,0.332,551
2021-10-13T07:33:21,42.805,6.029,CST-1368DR,5154,6919,14369,0.333,551
2021-10-13T07:36:23,42.805,6.029,CST-1368DR,5154,6912,14354,0.337,551
2021-10-13T07:39:24,42.805,6.029,CST-1368DR,5154,6920,14371,0.332,551
2021-10-13T07:42:26,42.805,6.029,CST-1368DR,5154,6916,14363,0.335,551
2021-10-13T07:45:27,42.805,6.029,CST-1368DR,5154,6920,14371,0.332,551
2021-10-13T07:48:29,42.805,6.029,CST-1368DR,5154,6920,14371,0.332,551
2021-10-13T07:51:31,42.805,6.029,CST-1368DR,5154,6921,14372,0.332,551
2021-10-13T07:54:32,42.805,6.029,CST-1368DR,5154,6906,14341,0.341,551
2021-10-13T07:57:34,42.805,6.029,CST-1368DR,5154,6920,14370,0.333,551
2021-10-13T08:00:35,42.805,6.029,CST-1368DR,5154,6920,14371,0.332,551
2021-10-13T08:03:37,42.805,6.029,CST-1368DR,5154,6920,14370,0.333,551
2021-10-13T08:06:39,42.805,6.029,CST-1368DR,5154,6920,14371,0.332,551
2021-10-13T08:09:40,42.805,6.029,CST-1368DR,5154,6920,14370,0.333,550
2021-10-13T08:12:42,42.805,6.029,CST-1368DR,5154,6919,14369,0.333,551
2021-10-13T08:15:43,42.805,6.029,CST-1368DR,5154,6920,14371,0.332,551
2021-10-13T08:18:45,42.805,6.029,CST-1368DR,5154,6920,14371,0.332,550
2021-10-13T08:21:46,42.805,6.029,CST-1368DR,5154,6917,14364,0.334,551
2021-10-13T08:24:48,42.805,6.029,CST-1368DR,5154,6919,14369,0.333,551
2021-10-13T08:27:50,42.805,6.029,CST-1368DR,5154,6920,14370,0.333,551
2021-10-13T08:30:51,42.805,6.029,CST-1368DR,5154,6920,14370,0.333,551
2021-10-13T08:33:53,42.805,6.029,CST-1368DR,5154,6920,14371,0.332,551
2021-10-13T08:36:54,42.805,6.029,CST-1368DR,5154,6919,14369,0.333,551
2021-10-13T08:39:56,42.805,6.029,CST-1368DR,5154,6920,14371,0.332,551
2021-10-13T08:42:57,42.805,6.029,CST-1368DR,5154,6921,14372,0.332,551
2021-10-13T08:45:59,42.805,6.029,CST-1368DR,5154,6920,14370,0.333,551
2021-10-13T08:49:01,42.805,6.029,CST-1368DR,5154,6920,14370,0.333,551
2021-10-13T08:52:02,42.805,6.029,CST-1368DR,5154,6920,14370,0.333,551
2021-10-13T08:55:04,42.805,6.029,CST-1368DR,5154,6920,14371,0.332,551
2021-10-13T08:58:05,42.805,6.029,CST-1368DR,5154,6919,14368,0.333,551
2021-10-13T09:01:07,42.805,6.029,CST-1368DR,5154,6917,14364,0.334,551
2021-10-13T09:04:09,42.805,6.029,CST-1368DR,5154,6920,14371,0.332,551
2021-10-13T09:07:10,42.805,6.029,CST-1368DR,5154,6920,14371,0.332,551
2021-10-13T09:10:12,42.805,6.029,CST-1368DR,5154,6919,14369,0.333,551
2021-10-13T09:13:13,42.805,6.029,CST-1368DR,5154,6920,14370,0.333,551
2021-10-13T09:16:15,42.805,6.029,CST-1368DR,5154,6921,14372,0.332,551
2021-10-13T09:19:16,42.805,6.029,CST-1368DR,5154,6920,14370,0.333,551
2021-10-13T09:22:18,42.805,6.029,CST-1368DR,5154,6920,14370,0.333,551
2021-10-13T09:25:20,42.805,6.029,CST-1368DR,5154,6919,14369,0.333,551
2021-10-13T09:28:21,42.805,6.029,CST-1368DR,5154,6920,14370,0.333,551
2021-10-13T09:31:23,42.805,6.029,CST-1368DR,5154,6919,14368,0.333,551
2021-10-13T09:34:24,42.805,6.029,CST-1368DR,5154,6919,14368,0.333,551
2021-10-13T09:37:26,42.805,6.029,CST-1368DR,5154,6920,14370,0.333,551
2021-10-13T09:40:28,42.805,6.029,CST-1368DR,5154,6920,14371,0.332,551
2021-10-13T09:43:29,42.805,6.029,CST-1368DR,5154,6920,14371,0.332,551
2021-10-13T09:46:31,42.805,6.029,CST-1368DR,5154,6919,14368,0.333,551
2021-10-13T09:49:32,42.805,6.029,CST-1368DR,5154,6920,14371,0.332,551
2021-10-13T09:52:34,42.805,6.029,CST-1368DR,5154,6919,14368,0.333,551
2021-10-13T09:55:35,42.805,6.029,CST-1368DR,5154,6919,14369,0.333,551
2021-10-13T09:58:37,42.805,6.029,CST-1368DR,5154,6920,14370,0.333,551
2021-10-13T10:01:39,42.805,6.029,CST-1368DR,5154,6919,14369,0.333,551
2021-10-13T10:04:40,42.805,6.029,CST-1368DR,5154,6919,14368,0.333,551
2021-10-13T10:07:42,42.805,6.029,CST-1368DR,5154,6919,14368,0.333,551
2021-10-13T10:10:43,42.805,6.029,CST-1368DR,5154,6918,14366,0.334,551
2021-10-13T10:13:45,42.805,6.029,CST-1368DR,5154,6919,14369,0.333,551
2021-10-13T10:16:46,42.805,6.029,CST-1368DR,5154,6920,14370,0.333,551
2021-10-13T10:19:48,42.805,6.029,CST-1368DR,5154,6918,14366,0.334,551
2021-10-13T10:22:50,42.805,6.029,CST-1368DR,5154,6920,14370,0.333,551
2021-10-13T10:25:51,42.805,6.029,CST-1368DR,5154,6919,14369,0.333,551
2021-10-13T10:28:53,42.805,6.029,CST-1368DR,5154,6919,14368,0.333,551
2021-10-13T10:31:54,42.805,6.029,CST-1368DR,5154,6920,14371,0.332,551
2021-10-13T10:34:56,42.805,6.029,CST-1368DR,5154,6919,14369,0.333,551
2021-10-13T10:37:58,42.805,6.029,CST-1368DR,5154,6920,14370,0.333,551
2021-10-13T10:40:59,42.805,6.029,CST-1368DR,5154,6920,14370,0.333,551
2021-10-13T10:44:01,42.805,6.029,CST-1368DR,5154,6920,14370,0.333,551
2021-10-13T10:47:02,42.805,6.029,CST-1368DR,5154,6920,14370,0.333,551
2021-10-13T10:50:04,42.805,6.029,CST-1368DR,5154,6920,14370,0.333,551
2021-10-13T10:53:05,42.805,6.029,CST-1368DR,5154,6919,14369,0.333,551
2021-10-13T10:56:07,42.805,6.029,CST-1368DR,5154,6920,14371,0.332,551
2021-10-13T10:59:09,42.805,6.029,CST-1368DR,5154,6919,14368,0.333,551
2021-10-13T11:02:10,42.805,6.029,CST-1368DR,5154,6919,14369,0.333,551
2021-10-13T11:05:12,42.805,6.029,CST-1368DR,5154,6919,14369,0.333,551
2021-10-13T11:08:13,42.805,6.029,CST-1368DR,5154,6919,14368,0.333,551
2021-10-13T11:11:15,42.805,6.029,CST-1368DR,5154,6918,14367,0.333,551
2021-10-13T11:14:17,42.805,6.029,CST-1368DR,5154,6919,14368,0.333,551
2021-10-13T11:17:18,42.805,6.029,CST-1368DR,5154,6919,14368,0.333,551
2021-10-13T11:20:20,42.805,6.029,CST-1368DR,5154,6919,14368,0.333,551
2021-10-13T11:23:21,42.805,6.029,CST-1368DR,5154,6919,14369,0.333,551
2021-10-13T11:26:23,42.805,6.029,CST-1368DR,5154,6919,14369,0.333,551
2021-10-13T11:29:24,42.805,6.029,CST-1368DR,5154,6920,14371,0.332,551
2021-10-13T11:32:26,42.805,6.029,CST-1368DR,5154,6919,14368,0.333,551
2021-10-13T11:35:28,42.805,6.029,CST-1368DR,5154,6919,14369,0.333,551
2021-10-13T11:38:29,42.805,6.029,CST-1368DR,5154,6919,14369,0.333,551
2021-10-13T11:41:31,42.805,6.029,CST-1368DR,5154,6919,14368,0.333,551
2021-10-13T11:44:32,42.805,6.029,CST-1368DR,5154,6919,14368,0.333,551
2021-10-13T11:47:34,42.805,6.029,CST-1368DR,5154,6919,14369,0.333,551
2021-10-13T11:50:35,42.805,6.029,CST-1368DR,5154,6919,14369,0.333,551
2021-10-13T11:53:37,42.805,6.029,CST-1368DR,5154,6919,14368,0.333,551
2021-10-13T11:56:39,42.805,6.029,CST-1368DR,5154,6918,14366,0.334,551
2021-10-13T11:59:40,42.805,6.029,CST-1368DR,5154,6919,14369,0.333,551
2021-10-13T12:02:42,42.805,6.029,CST-1368DR,5154,6918,14366,0.334,551
2021-10-13T12:05:43,42.805,6.029,CST-1368DR,5154,6919,14369,0.333,551
2021-10-13T12:08:45,42.805,6.029,CST-1368DR,5154,6917,14364,0.334,551
2021-10-13T12:11:47,42.805,6.029,CST-1368DR,5154,6919,14369,0.333,551
2021-10-13T12:14:48,42.805,6.029,CST-1368DR,5154,6919,14369,0.333,551
2021-10-13T12:17:50,42.805,6.029,CST-1368DR,5154,6920,14370,0.333,551
2021-10-13T12:20:51,42.805,6.029,CST-1368DR,5154,6919,14368,0.333,551
2021-10-13T12:23:53,42.805,6.029,CST-1368DR,5154,6919,14368,0.333,551
2021-10-13T12:26:54,42.805,6.029,CST-1368DR,5154,6918,14367,0.333,551
2021-10-13T12:29:56,42.805,6.029,CST-1368DR,5154,6919,14369,0.333,551
2021-10-13T12:32:58,42.805,6.029,CST-1368DR,5154,6918,14367,0.333,551
2021-10-13T12:35:59,42.805,6.029,CST-1368DR,5154,6920,14370,0.333,551
2021-10-13T12:39:01,42.805,6.029,CST-1368DR,5154,6918,14366,0.334,551
2021-10-13T12:42:02,42.805,6.029,CST-1368DR,5154,6919,14368,0.333,551
2021-10-13T12:45:04,42.805,6.029,CST-1368DR,5154,6919,14368,0.333,551
2021-10-13T12:48:06,42.805,6.029,CST-1368DR,5154,6918,14366,0.334,551
2021-10-13T12:51:07,42.805,6.029,CST-1368DR,5154,6918,14366,0.334,551
2021-10-13T12:54:09,42.805,6.029,CST-1368DR,5154,6919,14369,0.333,550
2021-10-13T12:57:10,42.805,6.029,CST-1368DR,5154,6919,14369,0.333,551
2021-10-13T13:00:12,42.805,6.029,CST-1368DR,5154,6919,14369,0.333,551
2021-10-13T13:03:13,42.805,6.029,CST-1368DR,5154,6919,14368,0.333,551
2021-10-13T13:06:15,42.805,6.029,CST-1368DR,5154,6919,14368,0.333,551
2021-10-13T13:09:17,42.805,6.029,CST-1368DR,5154,6918,14366,0.334,551
2021-10-13T13:12:18,42.805,6.029,CST-1368DR,5154,6919,14368,0.333,551
2021-10-13T13:15:20,42.805,6.029,CST-1368DR,5154,6919,14368,0.333,551
2021-10-13T13:18:21,42.805,6.029,CST-1368DR,5154,6919,14368,0.333,551
2021-10-13T13:21:23,42.805,6.029,CST-1368DR,5154,6919,14369,0.333,551
2021-10-13T13:24:24,42.805,6.029,CST-1368DR,5154,6919,14368,0.333,551
2021-10-13T13:27:26,42.805,6.029,CST-1368DR,5154,6919,14368,0.333,551
2021-10-13T13:30:28,42.805,6.029,CST-1368DR,5154,6919,14369,0.333,551
2021-10-13T13:33:29,42.805,6.029,CST-1368DR,5154,6919,14369,0.333,551
2021-10-13T13:36:31,42.805,6.029,CST-1368DR,5153,6918,14370,0.333,551
2021-10-13T13:39:32,42.805,6.029,CST-1368DR,5153,6919,14371,0.332,551
2021-10-13T13:42:34,42.805,6.029,CST-1368DR,5153,6919,14371,0.332,551
2021-10-13T13:45:36,42.805,6.029,CST-1368DR,5154,6919,14369,0.333,551
2021-10-13T13:48:37,42.805,6.029,CST-1368DR,5153,6919,14371,0.332,551
2021-10-13T13:51:39,42.805,6.029,CST-1368DR,5154,6919,14369,0.333,551
2021-10-13T13:54:40,42.805,6.029,CST-1368DR,5153,6919,14371,0.332,551
2021-10-13T13:57:42,42.805,6.029,CST-1368DR,5153,6919,14372,0.332,551
2021-10-13T14:00:43,42.805,6.029,CST-1368DR,5153,6918,14370,0.333,551
2021-10-13T14:03:45,42.805,6.029,CST-1368DR,5153,6919,14371,0.332,551
2021-10-13T14:06:47,42.805,6.029,CST-1368DR,5153,6919,14372,0.332,551
2021-10-13T14:09:48,42.805,6.029,CST-1368DR,5153,6917,14368,0.333,551
2021-10-13T14:12:50,42.805,6.029,CST-1368DR,5153,6919,14370,0.333,551
2021-10-13T14:15:51,42.805,6.029,CST-1368DR,5153,6919,14370,0.333,551
2021-10-13T14:18:53,42.805,6.029,CST-1368DR,5153,6918,14369,0.333,551
2021-10-13T14:21:55,42.805,6.029,CST-1368DR,5153,6917,14368,0.333,551
2021-10-13T14:24:56,42.805,6.029,CST-1368DR,5153,6919,14370,0.333,551
2021-10-13T14:27:58,42.805,6.029,CST-1368DR,5153,6919,14370,0.333,551
2021-10-13T14:30:59,42.805,6.029,CST-1368DR,5153,6919,14370,0.333,551
2021-10-13T14:34:01,42.805,6.029,CST-1368DR,5153,6919,14371,0.332,551
2021-10-13T14:37:02,42.805,6.029,CST-1368DR,5153,6918,14370,0.333,551
2021-10-13T14:40:04,42.805,6.029,CST-1368DR,5153,6919,14370,0.333,551
2021-10-13T14:43:06,42.805,6.029,CST-1368DR,5153,6918,14369,0.333,551
2021-10-13T14:46:07,42.805,6.029,CST-1368DR,5153,6920,14372,0.332,551
2021-10-13T14:49:09,42.805,6.029,CST-1368DR,5153,6916,14365,0.334,551
2021-10-13T14:52:10,42.805,6.029,CST-1368DR,5153,6919,14370,0.333,551
2021-10-13T14:55:12,42.805,6.029,CST-1368DR,5153,6919,14371,0.332,551
2021-10-13T14:58:13,42.805,6.029,CST-1368DR,5153,6919,14371,0.332,551
2021-10-13T15:01:15,42.805,6.029,CST-1368DR,5153,6917,14367,0.333,551
2021-10-13T15:04:17,42.805,6.029,CST-1368DR,5153,6919,14371,0.332,551
2021-10-13T15:07:18,42.805,6.029,CST-1368DR,5153,6919,14371,0.332,551
2021-10-13T15:10:20,42.805,6.029,CST-1368DR,5153,6919,14371,0.332,551
2021-10-13T15:13:21,42.805,6.029,CST-1368DR,5153,6918,14370,0.333,551
2021-10-13T15:16:23,42.805,6.029,CST-1368DR,5153,6919,14371,0.332,551
2021-10-13T15:19:25,42.805,6.029,CST-1368DR,5153,6919,14371,0.332,551
2021-10-13T15:22:26,42.805,6.029,CST-1368DR,5153,6919,14371,0.332,551
2021-10-13T15:25:28,42.805,6.029,CST-1368DR,5153,6917,14368,0.333,551
2021-10-13T15:28:29,42.805,6.029,CST-1368DR,5153,6918,14369,0.333,551
2021-10-13T15:31:31,42.805,6.029,CST-1368DR,5153,6918,14370,0.333,551
2021-10-13T15:34:32,42.805,6.029,CST-1368DR,5153,6918,14369,0.333,551
2021-10-13T15:37:34,42.805,6.029,CST-1368DR,5153,6917,14368,0.333,551
2021-10-13T15:40:36,42.805,6.029,CST-1368DR,5153,6918,14370,0.333,551
2021-10-13T15:43:37,42.805,6.029,CST-1368DR,5153,6918,14368,0.333,551
2021-10-13T15:46:39,42.805,6.029,CST-1368DR,5153,6917,14367,0.333,551
2021-10-13T15:49:40,42.805,6.029,CST-1368DR,5153,6917,14368,0.333,551
2021-10-13T15:52:42,42.805,6.029,CST-1368DR,5153,6918,14368,0.333,551
2021-10-13T15:55:43,42.805,6.029,CST-1368DR,5153,6918,14368,0.333,551
2021-10-13T15:58:45,42.805,6.029,CST-1368DR,5153,6917,14368,0.333,551
2021-10-13T16:01:47,42.805,6.029,CST-1368DR,5153,6917,14368,0.333,551
2021-10-13T16:04:48,42.805,6.029,CST-1368DR,5153,6917,14368,0.333,551
2021-10-13T16:07:50,42.805,6.029,CST-1368DR,5153,6917,14368,0.333,551
2021-10-13T16:10:51,42.805,6.029,CST-1368DR,5153,6917,14367,0.333,551
2021-10-13T16:13:53,42.805,6.029,CST-1368DR,5153,6917,14367,0.333,551
2021-10-13T16:16:55,42.805,6.029,CST-1368DR,5153,6917,14368,0.333,551
2021-10-13T16:19:56,42.805,6.029,CST-1368DR,5153,6917,14366,0.334,551
2021-10-13T16:22:58,42.805,6.029,CST-1368DR,5153,6917,14368,0.333,551
2021-10-13T16:25:59,42.805,6.029,CST-1368DR,5153,6917,14368,0.333,551
2021-10-13T16:29:01,42.805,6.029,CST-1368DR,5153,6917,14368,0.333,551
2021-10-13T16:32:02,42.805,6.029,CST-1368DR,5153,6917,14367,0.333,551
2021-10-13T16:35:04,42.805,6.029,CST-1368DR,5153,6917,14367,0.333,551
2021-10-13T16:38:06,42.805,6.029,CST-1368DR,5153,6917,14367,0.333,551
2021-10-13T16:41:07,42.805,6.029,CST-1368DR,5153,6917,14367,0.333,551
2021-10-13T16:44:09,42.805,6.029,CST-1368DR,5153,6917,14368,0.333,551
2021-10-13T16:47:10,42.805,6.029,CST-1368DR,5153,6917,14367,0.333,551
2021-10-13T16:50:12,42.805,6.029,CST-1368DR,5153,6916,14365,0.334,551
2021-10-13T16:53:14,42.805,6.029,CST-1368DR,5153,6916,14366,0.334,551